Change the Weather History Date:

Tuesday, September 25, 2012

  Actual Average Record
Temperature  
Mean Temperature 55 °F 62 °F  
Max Temperature 70 °F 72 °F 89 °F (1959)
Min Temperature 40 °F 51 °F 35 °F (1949)
Degree Days  
Heating Degree Days 10 5  
Month to date heating degree days 73 58  
Since 1 July heating degree days 73 69  
Cooling Degree Days 0 2  
Month to date cooling degree days 109 86  
Year to date cooling degree days 1109 795  
Growing Degree Days 4 (Base 50)    
Moisture  
Dew Point 44 °F    
Average Humidity 69    
Maximum Humidity 100    
Minimum Humidity 37    
Precipitation  
Precipitation T in 0.11 in 1.05 in (2000)
Month to date precipitation 1.97 2.67  
Year to date precipitation 22.65 32.14  
Sea Level Pressure  
Sea Level Pressure 30.12 in    
Wind  
Wind Speed 4 mph (SSW)    
Max Wind Speed 15 mph    
Max Gust Speed 25 mph    
Visibility 10 miles    
Events      
T = Trace of Precipitation, MM = Missing Value Source: NWS Daily Summary

Daily Weather History Graph

Daily Weather History Graph

Search for Another Location

Airport or City:

Trip Planner

Search our weather history database for the weather conditions in past years. The results will help you decide how hot, cold, wet, or windy it might be!

Date:

Astronomy

Sep. 25, 2012 Rise Set
Actual Time 7:10 AM EDT 7:11 PM EDT
Civil Twilight 6:43 AM EDT 7:37 PM EDT
Nautical Twilight 6:12 AM EDT 8:09 PM EDT
Astronomical Twilight 5:40 AM EDT 8:40 PM EDT
Moon 4:34 PM EDT (9/25) 2:31 AM EDT (9/25)
Length of Visible Light 12h 54m
Length of Day
12h 00m
Waxing Gibbous, 80% of the Moon is Illuminated
Sep 25
Waxing Gibbous
Sep 29
Full
Oct 8
Last Quarter
Oct 15
New
Oct 21
First Quarter

Hourly Weather History & Observations

Time (EDT) Temp. Dew Point Humidity Pressure Visibility Wind Dir Wind Speed Gust Speed Precip Events Conditions
12:53 AM 46.0 °F 37.9 °F 73% 30.14 in 10.0 mi Calm Calm - N/A   Clear
1:53 AM 45.0 °F 37.9 °F 76% 30.15 in 10.0 mi Calm Calm - N/A   Clear
2:53 AM 42.1 °F 39.0 °F 89% 30.15 in 10.0 mi Calm Calm - N/A   Clear
3:53 AM 39.9 °F 39.0 °F 97% 30.15 in 10.0 mi Calm Calm - N/A   Clear
4:53 AM 41.0 °F 37.9 °F 89% 30.15 in 10.0 mi Calm Calm - N/A   Clear
5:53 AM 42.1 °F 39.0 °F 89% 30.15 in 10.0 mi Calm Calm - N/A   Clear
6:53 AM 41.0 °F 37.9 °F 89% 30.16 in 10.0 mi Calm Calm - N/A   Clear
7:53 AM 43.0 °F 39.9 °F 89% 30.17 in 10.0 mi Calm Calm - N/A   Clear
8:53 AM 50.0 °F 43.0 °F 77% 30.15 in 10.0 mi Calm Calm - N/A   Clear
9:53 AM 59.0 °F 44.1 °F 58% 30.15 in 10.0 mi Variable 3.5 mph - N/A   Clear
10:53 AM 64.0 °F 42.1 °F 45% 30.16 in 10.0 mi South 6.9 mph 18.4 mph N/A   Scattered Clouds
11:53 AM 66.0 °F 42.1 °F 42% 30.15 in 10.0 mi SSW 9.2 mph - N/A   Overcast
12:53 PM 68.0 °F 42.1 °F 39% 30.15 in 10.0 mi Variable 6.9 mph - N/A   Overcast
1:53 PM 69.1 °F 42.1 °F 38% 30.12 in 10.0 mi SSW 11.5 mph 18.4 mph N/A   Partly Cloudy
2:53 PM 69.8 °F 42.8 °F 38% 30.10 in 10.0 mi SSW 11.5 mph 19.6 mph N/A   Overcast
3:53 PM 68.0 °F 43.0 °F 40% 30.10 in 10.0 mi SSW 10.4 mph 25.3 mph N/A   Overcast
4:53 PM 66.9 °F 44.1 °F 44% 30.09 in 10.0 mi SSW 10.4 mph 18.4 mph N/A   Overcast
5:53 PM 64.0 °F 48.0 °F 56% 30.07 in 10.0 mi South 9.2 mph 16.1 mph N/A   Mostly Cloudy
6:53 PM 63.0 °F 50.0 °F 63% 30.08 in 10.0 mi Variable 6.9 mph - N/A   Scattered Clouds
7:53 PM 61.0 °F 51.1 °F 70% 30.09 in 10.0 mi Calm Calm - N/A   Partly Cloudy
8:53 PM 60.1 °F 51.1 °F 72% 30.09 in 10.0 mi Calm Calm - N/A   Overcast
9:53 PM 59.0 °F 52.0 °F 78% 30.08 in 10.0 mi South 4.6 mph - N/A   Mostly Cloudy
10:53 PM 61.0 °F 53.1 °F 75% 30.07 in 10.0 mi South 3.5 mph - N/A   Overcast
11:53 PM 61.0 °F 53.1 °F 75% 30.07 in 10.0 mi South 5.8 mph - N/A   Mostly Cloudy